[TLELIST] Archives

 

[list_settings.list_name] Current TLEs

April 16th 2021 PST

HST 1 20580U 90037B 21106.17013348 .00000499 00000-0 19213-4 0 9993 2 20580 28.4691 117.1798 0002926 110.7515 316.0698 15.09611393501838 ISS (ZARYA) 1 25544U 98067A 21106.35483517 .00000869 00000-0 24019-4 0 9999 2 25544 51.6440 288.5562 0002888 230.8792 196.1667 15.48889404279011 CXO 1 25867U 99040B 21107.28550558 .00000888 00000-0 00000+0 0 9992 2 25867 56.5502 257.6372 8228202 226.2821 0.1744 0.37803532 21349 ____________________________________________________________________ These 2-Line ...Continue Reading

[list_settings.list_name] Current TLEs

April 15th 2021 PST

HST 1 20580U 90037B 21104.46611060 .00000488 00000-0 18593-4 0 9996 2 20580 28.4690 128.4543 0002944 93.8192 53.9615 15.09610226501382 ISS (ZARYA) 1 25544U 98067A 21105.27684449 .00000230 00000-0 12373-4 0 9998 2 25544 51.6433 293.8873 0002789 229.1605 303.0390 15.48883950278843 CXO 1 25867U 99040B 21107.28550558 .00000888 00000-0 00000+0 0 9992 2 25867 56.5502 257.6372 8228202 226.2821 0.1744 0.37803532 21349 ____________________________________________________________________ These 2-Line ...Continue Reading

[list_settings.list_name] Current TLEs

April 14th 2021 PST

HST 1 20580U 90037B 21103.19285425 .00000469 00000-0 17397-4 0 9997 2 20580 28.4690 136.8786 0002936 81.2827 333.1464 15.09609251501382 ISS (ZARYA) 1 25544U 98067A 21103.84943184 .00000176 00000-0 11381-4 0 9990 2 25544 51.6434 300.9481 0002858 223.8443 263.8789 15.48881793278621 CXO 1 25867U 99040B 21104.64077876 .00000800 00000-0 00000-0 0 9991 2 25867 56.6048 257.7260 8222983 226.2709 0.1798 0.37804407 10201 ____________________________________________________________________ These 2-Line ...Continue Reading

[list_settings.list_name] Current TLEs

April 13th 2021 PST

HST 1 20580U 90037B 21103.19285425 .00000469 00000-0 17397-4 0 9997 2 20580 28.4690 136.8786 0002936 81.2827 333.1464 15.09609251501382 ISS (ZARYA) 1 25544U 98067A 21103.27861774 -.00000194 00000-0 46354-5 0 9991 2 25544 51.6434 303.7712 0002831 223.6238 319.1529 15.48880037278537 CXO 1 25867U 99040B 21104.64077876 .00000800 00000-0 00000-0 0 9991 2 25867 56.6048 257.7260 8222983 226.2709 0.1798 0.37804407 10201 ____________________________________________________________________ These 2-Line ...Continue Reading

[list_settings.list_name] Current TLEs

April 12th 2021 PST

HST 1 20580U 90037B 21101.82451567 .00000524 00000-0 20751-4 0 9997 2 20580 28.4690 145.9322 0002909 67.5903 95.7346 15.09608719501008 ISS (ZARYA) 1 25544U 98067A 21102.10035103 .00000889 00000-0 24376-4 0 9990 2 25544 51.6438 309.5976 0002856 216.4321 232.0382 15.48882246278351 CXO 1 25867U 99040B 21104.64006900 .00000800 00000-0 00000-0 0 9991 2 25867 56.6049 257.7262 8223002 226.2709 0.0833 0.37803875 10192 ____________________________________________________________________ These 2-Line ...Continue Reading

[list_settings.list_name] Current TLEs

April 11th 2021 PST

HST 1 20580U 90037B 21100.83286595 .00000503 00000-0 19462-4 0 9998 2 20580 28.4689 152.4935 0002895 57.6175 105.8138 15.09607967500852 ISS (ZARYA) 1 25544U 98067A 21101.44941093 .00000470 00000-0 16748-4 0 9990 2 25544 51.6453 312.8206 0002880 214.7015 201.7450 15.48879472278254 CXO 1 25867U 99040B 21101.99724661 .00000756 00000-0 00000-0 0 9997 2 25867 56.6507 257.8034 8216662 226.2745 0.3287 0.37803162 10187 ____________________________________________________________________ These 2-Line ...Continue Reading

[list_settings.list_name] Current TLEs

April 10th 2021 PST

HST 1 20580U 90037B 21099.90761736 .00000524 00000-0 20743-4 0 9995 2 20580 28.4689 158.6153 0002874 48.1341 116.9848 15.09607544500716 ISS (ZARYA) 1 25544U 98067A 21100.24193259 .00001135 00000-0 28871-4 0 9999 2 25544 51.6456 318.7901 0002913 206.6913 312.4619 15.48878317278061 CXO 1 25867U 99040B 21101.99724661 .00000756 00000-0 00000-0 0 9997 2 25867 56.6507 257.8034 8216662 226.2745 0.3287 0.37803162 10187 ____________________________________________________________________ These 2-Line ...Continue Reading

[list_settings.list_name] Current TLEs

April 9th 2021 PST

HST 1 20580U 90037B 21099.36350319 .00000538 00000-0 21585-4 0 9996 2 20580 28.4689 162.2154 0002855 42.8691 39.3528 15.09607284500800 ISS (ZARYA) 1 25544U 98067A 21099.33999299 .00000771 00000-0 22230-4 0 9992 2 25544 51.6453 323.2521 0002768 201.1072 325.5506 15.48875055277921 CXO 1 25867U 99040B 21099.35290761 .00000772 00000-0 00000-0 0 9990 2 25867 56.6784 257.8653 8210536 226.2958 0.3344 0.37805738 10186 ____________________________________________________________________ These 2-Line ...Continue Reading

[list_settings.list_name] Current TLEs

April 8th 2021 PST

HST 1 20580U 90037B 21097.51906115 .00000503 00000-0 19498-4 0 9994 2 20580 28.4690 174.4191 0002794 23.8656 94.7093 15.09605771500351 ISS (ZARYA) 1 25544U 98067A 21098.17331939 .00002319 00000-0 50443-4 0 9991 2 25544 51.6465 329.0187 0002827 197.0064 300.0551 15.48874323277741 CXO 1 25867U 99040B 21099.35290761 .00000772 00000-0 00000-0 0 9990 2 25867 56.6784 257.8653 8210536 226.2958 0.3344 0.37805738 10186 ____________________________________________________________________ These 2-Line ...Continue Reading

[list_settings.list_name] Current TLEs

April 7th 2021 PST

HST 1 20580U 90037B 21096.45641208 .00000543 00000-0 21929-4 0 9991 2 20580 28.4691 181.4499 0002747 12.7269 79.3482 15.09605192500196 ISS (ZARYA) 1 25544U 98067A 21097.40647234 .00001690 00000-0 39002-4 0 9993 2 25544 51.6464 332.8116 0002933 191.9452 346.3978 15.48867738277621 CXO 1 25867U 99040B 21099.35269717 .00000772 00000-0 00000-0 0 9997 2 25867 56.6784 257.8653 8210527 226.2958 0.3057 0.37805917 10175 ____________________________________________________________________ These 2-Line ...Continue Reading
  • This mailing list is a public mailing list - anyone may join or leave, at any time.
  • This mailing list is announce-only.

International Space Station (ISS) / Hubble Space Telescope (HST) / Chandra X-Ray Observatory Orbital Data via EMAIL

Privacy Policy:

Private list